User: anonymous   Login
Location: Ferchesar
(52.6477°N, 12.4298°E)
Time: 20:30:44
(UTC+01:00)
Language:

Tiros 1 despin weight - Orbit

View from above orbital plane
View from above orbital plane
View from above satellite
View from above satellite

Ground track
Ground track

The orbit data is extracted from the following two-line orbital elements,

1 00115U 60002D   21334.99237113  .00000278  00000-0  59778-4 0  9990
2 00115  48.1659 237.7180 0034090  71.4473 289.0139 14.83915866270745
Epoch (UTC): 30 November 2021 23:49:00
Eccentricity: 0.0034090
inclination: 48.1659°
perigee height: 593 km
apogee height: 641 km
right ascension of ascending node: 237.7180°
argument of perigee: 71.4473°
revolutions per day: 14.83915866
mean anomaly at epoch: 289.0139°
orbit number at epoch: 27074

The dashed part of the orbit path shows where the satellite is in the earth's shadow,  

DLR